Location: Asarope
(8.2500°N, 4.4833°E)
Time: 00:03:01
(UTC+00:00)

Hubble Space Telescope - Pass Details

Date: 08 August 2021
Orbit: 535 x 539 km, 28.5° (Epoch: 24 September)

Event Time Altitude Azimuth Distance (km) Brightness Sun altitude
Rises 19:39:21 0° 283° (WNW) 2,668 5.7 -24.0°
Reaches altitude 10° 19:41:49 10° 272° (W) 1,777 4.3 -24.5°
Enters shadow 19:45:02 29° 221° (SW) 1,000 2.2 -25.3°
